Minden, LA

5:40 AM CDT on May 24, 2017 (GMT -0500)
Minden

Weather History for KMNE - March, 2012

Change the Weather History Date:

Wednesday, March 7, 2012

  Actual Average (KBAD) Record (KBAD)
Temperature  
Mean Temperature 69 °F -  
Max Temperature 78 °F 61 °F 81 °F (2009)
Min Temperature 60 °F 43 °F 26 °F (2015)
Cooling Degree Days 4    
Growing Degree Days 19 (Base 50)    
Moisture  
Dew Point 55 °F    
Average Humidity 64    
Maximum Humidity 88    
Minimum Humidity 39    
Precipitation  
Precipitation 0.00 in - - ()
Sea Level Pressure  
Sea Level Pressure 30.14 in    
Wind  
Wind Speed 9 mph ()    
Max Wind Speed 16 mph    
Max Gust Speed 26 mph    
Visibility 10.0 miles    
Events Rain    
Averages and records for this station are not official NWS values.
T = Trace of Precipitation, MM = Missing Value Source: Averaged Metar Reports

Daily Weather History Graph

Daily Weather History Graph

Search for Another Location

Airport or City:

Trip Planner

Search our weather history database for the weather conditions in past years. The results will help you decide how hot, cold, wet, or windy it might be!

Date:

Astronomy

Mar. 07, 2012 Rise Set
Actual Time 6:32 AM CST 6:15 PM CST
Civil Twilight 6:08 AM CST 6:40 PM CST
Nautical Twilight 5:39 AM CST 7:08 PM CST
Astronomical Twilight 5:11 AM CST 7:37 PM CST
Moon 5:51 PM CST (3/7) 5:43 AM CST (3/7)
Length of Visible Light 12h 31m
Length of Day
11h 42m
Waxing Gibbous, 99% of the Moon is Illuminated
Mar 7
Waxing Gibbous
Mar 8
Full
Mar 14
Last Quarter
Mar 22
New
Mar 30
First Quarter

Hourly Weather History & Observations

Time (CST) Temp. Dew Point Humidity Pressure Visibility Wind Dir Wind Speed Gust Speed Precip Events Conditions
12:14 AM 62.6 °F 50.0 °F 63% 30.19 in 10.0 mi SSE 10.4 mph - N/A   Clear
12:34 AM 62.6 °F 50.0 °F 63% 30.18 in 10.0 mi SSE 10.4 mph - N/A   Clear
12:54 AM 62.6 °F 50.0 °F 63% 30.18 in 10.0 mi SSE 8.1 mph - N/A   Clear
1:14 AM 62.6 °F 50.0 °F 63% 30.19 in 10.0 mi SSE 8.1 mph - N/A   Clear
1:54 AM 60.8 °F 50.0 °F 68% 30.19 in 10.0 mi SSE 8.1 mph - N/A   Clear
2:15 AM 60.8 °F 50.0 °F 68% 30.18 in 10.0 mi SE 6.9 mph - N/A   Clear
2:34 AM 60.8 °F 51.8 °F 72% 30.17 in 10.0 mi SSE 6.9 mph - N/A   Clear
2:54 AM 60.8 °F 51.8 °F 72% 30.17 in 10.0 mi SE 5.8 mph - N/A   Clear
3:14 AM 60.8 °F 51.8 °F 72% 30.17 in 10.0 mi SE 6.9 mph - N/A   Clear
3:34 AM 60.8 °F 51.8 °F 72% 30.17 in 10.0 mi SSE 6.9 mph - N/A   Scattered Clouds
3:54 AM 60.8 °F 51.8 °F 72% 30.16 in 10.0 mi SE 6.9 mph - N/A   Scattered Clouds
4:14 AM 60.8 °F 51.8 °F 72% 30.17 in 10.0 mi SE 6.9 mph - N/A   Mostly Cloudy
4:54 AM 60.8 °F 51.8 °F 72% 30.18 in 10.0 mi SE 8.1 mph - N/A   Overcast
5:14 AM 60.8 °F 51.8 °F 72% 30.19 in 10.0 mi SE 6.9 mph - N/A   Overcast
5:34 AM 60.8 °F 53.6 °F 77% 30.18 in 10.0 mi SE 8.1 mph - N/A   Overcast
5:54 AM 60.8 °F 53.6 °F 77% 30.18 in 10.0 mi SE 8.1 mph - N/A   Mostly Cloudy
6:34 AM 60.8 °F 53.6 °F 77% 30.19 in 10.0 mi SE 8.1 mph - N/A   Scattered Clouds
6:54 AM 60.8 °F 53.6 °F 77% 30.20 in 10.0 mi SE 6.9 mph - N/A   Overcast
7:14 AM 60.8 °F 55.4 °F 82% 30.21 in 10.0 mi SE 6.9 mph - N/A   Mostly Cloudy
7:36 AM 60.8 °F 55.4 °F 82% 30.20 in 10.0 mi SE 8.1 mph - N/A   Mostly Cloudy
7:54 AM 62.6 °F 55.4 °F 77% 30.21 in 10.0 mi SE 8.1 mph - N/A   Mostly Cloudy
8:14 AM 62.6 °F 55.4 °F 77% 30.21 in 10.0 mi SE 9.2 mph - N/A   Overcast
8:34 AM 62.6 °F 55.4 °F 77% 30.20 in 10.0 mi SE 11.5 mph 18.4 mph N/A   Overcast
8:54 AM 64.4 °F 55.4 °F 73% 30.21 in 10.0 mi SE 9.2 mph 17.3 mph N/A   Overcast
9:14 AM 64.4 °F 57.2 °F 77% 30.21 in 10.0 mi SSE 11.5 mph 19.6 mph N/A   Overcast
9:56 AM 66.2 °F 57.2 °F 73% 30.21 in 10.0 mi SE 6.9 mph - N/A   Overcast
10:14 AM 69.8 °F 57.2 °F 64% 30.21 in 10.0 mi SE 10.4 mph - N/A   Overcast
10:36 AM 69.8 °F 57.2 °F 64% 30.20 in 10.0 mi South 11.5 mph 19.6 mph N/A   Overcast
10:56 AM 71.6 °F 57.2 °F 60% 30.19 in 10.0 mi SSE 8.1 mph 19.6 mph N/A   Overcast
11:14 AM 71.6 °F 55.4 °F 57% 30.19 in 10.0 mi South 16.1 mph 24.2 mph N/A   Overcast
11:54 AM 71.6 °F 55.4 °F 57% 30.17 in 10.0 mi SSE 15.0 mph 23.0 mph N/A   Overcast
12:34 PM 73.4 °F 55.4 °F 53% 30.16 in 10.0 mi SSE 11.5 mph 21.9 mph N/A   Overcast
12:54 PM 73.4 °F 55.4 °F 53% 30.14 in 10.0 mi South 12.7 mph 25.3 mph N/A   Overcast
1:14 PM 75.2 °F 55.4 °F 50% 30.13 in 10.0 mi South 12.7 mph 21.9 mph N/A   Overcast
2:16 PM 75.2 °F 53.6 °F 47% 30.09 in 10.0 mi South 16.1 mph 20.7 mph N/A   Mostly Cloudy
2:34 PM 78.8 °F 53.6 °F 42% 30.09 in 10.0 mi SSE 15.0 mph 26.5 mph N/A   Mostly Cloudy
2:56 PM 78.8 °F 51.8 °F 39% 30.09 in 10.0 mi South 16.1 mph 23.0 mph N/A   Mostly Cloudy
3:17 PM 77.0 °F 53.6 °F 44% 30.09 in 10.0 mi South 11.5 mph 21.9 mph N/A   Overcast
3:34 PM 77.0 °F 53.6 °F 44% 30.08 in 10.0 mi South 10.4 mph 20.7 mph N/A   Overcast
3:54 PM 77.0 °F 53.6 °F 44% 30.08 in 10.0 mi South 11.5 mph 17.3 mph N/A   Overcast
4:14 PM 78.8 °F 53.6 °F 42% 30.07 in 10.0 mi SE 13.8 mph 18.4 mph N/A   Overcast
4:37 PM 77.0 °F 53.6 °F 44% 30.07 in 10.0 mi South 9.2 mph 18.4 mph N/A   Overcast
4:56 PM 77.0 °F 53.6 °F 44% 30.07 in 10.0 mi SSE 4.6 mph 19.6 mph N/A   Overcast
5:14 PM 77.0 °F 53.6 °F 44% 30.07 in 10.0 mi SSE 9.2 mph - N/A   Overcast
5:34 PM 75.2 °F 55.4 °F 50% 30.07 in 10.0 mi SSE 10.4 mph 20.7 mph N/A   Overcast
5:54 PM 75.2 °F 55.4 °F 50% 30.06 in 10.0 mi SE 9.2 mph - N/A   Overcast
6:15 PM 75.2 °F 57.2 °F 53% 30.07 in 10.0 mi SSE 6.9 mph - N/A   Overcast
6:34 PM 73.4 °F 57.2 °F 57% 30.07 in 10.0 mi SE 9.2 mph - N/A   Overcast
6:54 PM 73.4 °F 57.2 °F 57% 30.07 in 10.0 mi SSE 8.1 mph - N/A   Overcast
7:14 PM 73.4 °F 59.0 °F 61% 30.07 in 10.0 mi SSE 10.4 mph 16.1 mph N/A   Overcast
7:34 PM 73.4 °F 59.0 °F 61% 30.07 in 10.0 mi SSE 9.2 mph - N/A   Overcast
7:54 PM 73.4 °F 59.0 °F 61% 30.08 in 10.0 mi SSE 9.2 mph 17.3 mph N/A   Overcast
8:15 PM 73.4 °F 60.8 °F 65% 30.08 in 10.0 mi SSE 5.8 mph 17.3 mph N/A   Overcast
8:35 PM 73.4 °F 60.8 °F 65% 30.09 in 10.0 mi SSE 9.2 mph - N/A   Overcast
8:54 PM 73.4 °F 60.8 °F 65% 30.09 in 10.0 mi SSE 8.1 mph 19.6 mph N/A   Overcast
9:14 PM 73.4 °F 60.8 °F 65% 30.09 in 10.0 mi SSE 11.5 mph 23.0 mph N/A   Overcast
10:14 PM 71.6 °F 62.6 °F 73% 30.09 in 10.0 mi SSE 9.2 mph 21.9 mph N/A   Overcast
10:34 PM 71.6 °F 62.6 °F 73% 30.09 in 10.0 mi SSE 9.2 mph 17.3 mph N/A Rain Light Rain
10:54 PM 71.6 °F 62.6 °F 73% 30.09 in 10.0 mi SSE 6.9 mph 17.3 mph N/A   Overcast
11:15 PM 71.6 °F 62.6 °F 73% 30.09 in 10.0 mi South 13.8 mph 21.9 mph N/A   Overcast
11:34 PM 69.8 °F 62.6 °F 78% 30.09 in 10.0 mi South 10.4 mph 19.6 mph N/A Rain Rain
11:55 PM 68.0 °F 64.4 °F 88% 30.09 in 7.0 mi SSE 6.9 mph - N/A   Drizzle